This demonstration page uses our WeatherBlox Daily Observations layout. Learn more.

Left ArrowRight Arrow

36.17497, -115.13722

Hourly Observations for February 15, 2019

Temp ( °F °C ) Dew Point ( °F °C ) Humidity (%) Winds ( mph kmh ) Pressure ( in mb ) Visibility ( mi km ) Precip ( " mm )
12:19 am 00:19 Clear 50 10 33 0.6 52 52 SW 10 17 29.79 1009 10 16 0.00 0.00
12:53 am 00:53 Clear 44 6.7 35 1.7 71 71 N 9 15 29.87 1012 10 16 0.00 0.00
1:53 am 01:53 Clear 43 6.1 35 1.7 74 74 Calm 29.90 1013 10 16 0.00 0.00
2:53 am 02:53 Clear 40 4.4 35 1.7 83 83 W 6 9 29.91 1013 10 16 0.00 0.00
3:53 am 03:53 Clear 38 3.3 35 1.7 89 89 N 5 7 29.93 1014 10 16 0.00 0.00
4:53 am 04:53 Clear 38 3.3 35 1.7 89 89 W 6 9 29.93 1014 10 16 0.00 0.00
5:53 am 05:53 Clear 37 2.8 34 1.1 89 89 N 3 6 29.95 1014 10 16 0.00 0.00
6:53 am 06:53 Sunny 41 5 33 0.6 73 73 E 8 13 29.97 1015 10 16 0.00 0.00
7:53 am 07:53 Sunny 42 5.6 34 1.1 73 73 WNW 5 7 29.98 1015 10 16 0.00 0.00
8:53 am 08:53 Sunny 45 7.2 35 1.7 68 68 Calm 29.98 1015 10 16 0.00 0.00
9:53 am 09:53 Sunny 51 10.6 32 0 48 48 S 16 26 29.94 1014 10 16 0.00 0.00
10:53 am 10:53 Sunny 54 12.2 33 0.6 45 45 S 23 37 29.94 1014 10 16 0.00 0.00
11:53 am 11:53 Sunny 57 13.9 29 -1.7 34 34 SSW 23 37 29.92 1013 10 16 0.00 0.00
12:53 pm 12:53 Sunny 58 14.4 28 -2.2 32 32 SW 29 46 29.89 1012 10 16 0.00 0.00
1:53 pm 13:53 Sunny 59 15 29 -1.7 32 32 SW 29 46 29.86 1011 10 16 0.00 0.00
2:53 pm 14:53 Sunny 59 15 29 -1.7 32 32 SW 30 48 29.84 1011 10 16 0.00 0.00
3:53 pm 15:53 Sunny 58 14.4 28 -2.2 32 32 WSW 17 28 29.87 1011 10 16 0.00 0.00
4:53 pm 16:53 Sunny 56 13.3 29 -1.7 36 36 SW 13 20 29.88 1012 10 16 0.00 0.00
5:53 pm 17:53 Partly Cloudy 53 11.7 33 0.6 47 47 SE 14 22 29.87 1011 10 16 0.00 0.00
6:53 pm 18:53 Mostly Cloudy 53 11.7 33 0.6 47 47 SE 8 13 29.88 1012 10 16 0.00 0.00
7:53 pm 19:53 Partly Cloudy 54 12.2 32 0 43 43 WSW 15 24 29.88 1012 10 16 0.00 0.00
8:53 pm 20:53 Partly Cloudy 53 11.7 33 0.6 47 47 WSW 24 39 29.89 1012 10 16 0.00 0.03
9:53 pm 21:53 Cloudy 51 10.6 32 0 48 48 WSW 21 33 29.88 1012 10 16 0.00 0.03
10:53 pm 22:53 Clear 50 10 29 -1.7 44 44 WSW 20 31 29.88 1012 10 16 0.00 0.00
11:53 pm 23:53 Clear 49 9.4 28 -2.2 44 44 WSW 23 37 29.85 1011 10 16 0.00 0.00

Powered by AerisWeather